Wind_Speed
16 16 17 18 19 19 20 19 19 19 19 19 19 19 19 18 18 17 17 17 17 17 17 17 17 17 18 18 17 16 16 15 15 15 16 16 17 18 18 20 20 21 21
16 17 18 18 18 18 18 18 18 18 19 19 20 20 20 20 20 19 18 18 18 17 17 17 17 17 18 17 17 17 16 16 16 17 17 17 18 19 19 20 21 22 22
17 18 18 18 18 18 18 18 18 19 20 20 21 21 22 22 22 22 20 20 19 18 18 18 17 18 18 18 18 18 18 18 18 19 19 19 20 21 22 22 23 23 24
17 17 18 18 19 20 20 20 20 21 21 22 22 22 23 23 23 23 22 21 21 19 19 18 18 18 19 19 19 19 19 18 18 19 20 20 21 22 23 24 25 25 26
18 18 18 18 19 20 21 21 21 22 22 23 23 23 24 24 24 24 23 22 22 21 20 19 19 19 20 20 19 19 19 18 18 19 20 21 22 23 25 26 26 27 27
20 19 19 20 20 21 22 22 22 22 23 24 24 24 24 24 24 24 24 23 23 23 21 21 20 20 20 20 20 19 19 19 19 20 21 22 23 25 26 27 27 27 27
23 22 22 22 22 22 22 22 22 23 23 23 24 24 24 25 25 24 24 24 24 24 23 21 21 20 20 20 20 19 19 19 20 21 22 23 25 27 28 28 28 28 27
26 24 24 23 23 23 23 22 22 22 22 22 22 23 23 23 24 23 23 24 24 24 24 22 21 21 20 20 20 19 19 19 21 23 24 25 26 27 27 27 27 27 27
27 26 25 25 25 24 23 23 22 22 22 22 21 21 22 22 22 22 22 22 23 23 23 23 22 21 21 20 21 21 21 22 23 25 25 26 26 26 26 26 25 25 25
28 28 27 26 25 25 25 24 24 24 23 23 22 21 21 21 21 21 20 20 21 22 23 23 23 23 23 23 23 23 24 25 26 27 27 27 27 27 26 25 25 24 24
28 29 29 27 27 27 27 26 26 25 24 24 23 22 21 21 20 20 20 20 20 21 22 23 24 25 26 27 27 28 28 29 30 30 30 30 29 29 28 28 26 26 25
28 30 30 29 28 28 28 28 28 27 26 25 25 24 23 22 22 21 21 20 21 21 23 24 25 26 28 29 31 32 33 33 34 34 33 33 32 31 31 30 29 28 28
28 29 30 30 29 29 29 30 30 29 28 27 27 27 26 25 24 23 23 22 22 23 24 24 25 26 27 29 31 33 35 37 37 36 36 35 35 34 33 32 31 31 31
27 27 28 29 29 29 30 31 32 31 30 30 29 28 27 27 26 25 25 24 24 24 25 26 26 27 27 28 29 31 33 35 36 37 37 37 36 36 35 34 34 34 34
27 27 27 28 28 29 31 32 32 32 32 31 30 29 29 28 28 28 27 27 26 26 27 27 28 28 29 29 29 30 31 32 33 34 35 35 36 36 35 35 35 35 35
30 29 29 28 29 30 30 31 32 32 32 32 31 31 30 29 29 29 29 28 28 28 28 28 29 29 30 30 31 31 31 32 32 32 33 33 34 34 34 35 35 35 34
32 32 31 29 30 30 31 31 32 32 32 31 31 31 31 30 30 29 29 29 28 28 29 30 30 31 31 32 32 33 33 33 32 32 33 33 33 33 34 34 35 35 35
34 34 32 31 31 31 31 32 32 32 31 30 30 30 30 30 31 30 29 29 29 29 31 31 32 32 32 33 34 34 34 34 34 33 33 34 34 34 34 35 36 36 37
36 36 35 33 32 32 33 34 34 33 31 29 29 29 29 31 31 31 30 30 31 32 33 34 34 34 35 35 35 36 36 36 36 35 35 35 36 37 37 38 39 40 42
37 38 37 36 34 34 34 35 35 34 32 31 30 30 30 32 32 32 32 32 33 34 35 35 36 36 36 36 36 36 37 37 37 37 37 37 38 39 41 42 43 44 45
38 39 39 39 37 36 36 36 36 36 36 35 34 33 32 32 33 33 33 34 34 34 35 35 36 36 36 36 36 37 37 37 37 38 38 39 40 42 43 45 46 48 48
41 42 42 42 41 40 39 38 39 40 40 39 36 34 33 33 34 34 34 34 33 34 34 35 35 35 35 35 36 37 37 37 38 39 40 41 42 44 45 47 48 49 49
45 44 44 45 45 44 43 42 42 43 42 40 38 36 36 38 38 36 35 34 33 34 34 34 34 34 35 35 36 37 37 38 39 40 41 42 44 45 46 47 48 49 49
47 47 47 47 47 47 47 46 45 44 43 42 42 42 42 42 40 38 36 35 35 35 35 35 35 35 36 36 37 37 38 39 40 41 42 43 45 46 47 48 49 50 50
50 51 50 50 50 50 50 50 48 46 45 45 46 46 45 45 44 42 40 38 38 38 37 36 36 36 36 37 38 38 39 39 40 41 43 44 45 47 48 50 50 51 52
55 56 56 55 55 55 54 53 52 50 48 47 48 49 48 48 47 46 44 42 41 40 39 38 37 36 37 38 39 40 40 40 41 42 43 44 46 47 50 52 53 54 54
Wind_Direction
257 261 262 265 267 267 267 268 268 267 266 265 267 270 275 279 283 287 284 280 280 280 279 275 270 268 269 273 279 284 286 285 284 283 283 285 287 287 286 285 283 281 280
258 260 262 265 269 270 269 269 268 267 265 264 264 266 270 274 278 282 282 278 275 276 277 276 272 271 272 276 279 282 283 282 281 282 284 286 286 286 286 285 284 283 282
258 259 262 265 269 270 270 269 269 268 267 266 265 265 267 270 274 276 277 276 272 271 272 272 271 271 271 274 276 278 280 280 280 282 284 286 287 287 287 286 285 285 285
261 261 263 265 267 268 270 271 271 271 270 269 267 266 267 268 271 272 272 272 269 266 266 267 267 267 268 270 273 276 278 279 280 282 284 285 286 286 286 286 286 285 285
261 262 263 264 265 267 270 272 272 272 271 271 270 269 268 268 269 270 271 269 266 263 262 263 263 264 266 268 270 273 275 277 279 281 283 286 287 287 287 287 286 286 285
258 261 262 263 264 266 269 271 272 272 273 273 273 272 271 269 269 271 271 270 268 264 261 262 263 265 267 269 271 273 275 277 278 280 283 287 288 289 288 288 287 286 285
257 259 261 263 265 267 269 272 273 274 275 276 277 277 276 273 271 271 272 272 272 269 265 264 265 266 267 270 271 273 273 274 277 281 285 288 290 290 289 288 286 284 283
255 258 261 263 266 268 271 273 274 277 279 280 280 281 280 277 274 272 272 273 273 272 269 267 267 267 267 268 269 270 270 272 277 283 288 291 294 294 292 290 286 282 279
255 257 259 262 265 268 272 274 277 278 281 282 284 283 281 278 275 273 272 273 274 272 270 268 267 266 265 265 265 266 268 272 279 285 289 293 296 297 295 292 289 284 280
254 256 257 259 263 266 270 274 276 278 279 281 283 283 282 280 278 275 274 274 275 274 272 269 266 264 262 262 262 263 267 272 277 283 286 290 293 294 294 293 289 285 281
249 252 255 257 259 263 266 270 273 275 276 278 280 282 282 282 280 279 278 278 278 277 275 272 269 265 262 261 261 263 266 271 275 279 282 285 288 289 290 289 286 282 279
244 247 251 254 256 259 263 266 269 271 273 276 278 280 281 281 281 280 280 280 280 280 279 277 275 271 267 265 264 264 266 269 272 275 278 281 283 284 285 285 282 280 278
245 247 251 253 255 257 260 263 266 269 271 273 276 278 280 280 280 280 279 279 280 281 281 281 280 277 275 272 271 270 270 271 273 274 276 278 280 281 282 283 281 280 278
247 248 250 253 255 257 259 261 264 267 269 271 273 276 279 280 281 281 279 279 279 279 281 283 283 283 282 280 278 277 276 276 275 274 274 275 277 280 281 282 281 280 278
248 248 249 252 255 257 259 261 264 266 268 269 271 272 275 278 280 281 281 280 280 280 282 283 285 286 286 285 284 284 284 282 280 279 277 277 278 279 280 281 280 279 278
249 249 249 250 252 255 259 262 265 266 267 268 269 270 271 274 277 279 280 282 282 282 283 285 287 288 289 288 287 286 286 285 284 282 280 280 280 280 281 281 280 280 278
249 251 251 250 250 253 257 261 264 265 266 266 267 269 270 272 274 276 278 280 282 284 285 287 288 289 289 289 288 287 286 285 284 283 282 281 281 281 281 281 280 280 278
249 250 251 249 249 250 254 258 261 263 264 266 266 267 269 269 270 272 274 276 279 282 284 287 289 290 290 290 289 287 286 285 284 283 281 281 281 281 281 280 280 279 279
246 248 249 249 249 249 251 254 256 259 262 264 265 265 265 266 267 268 270 273 276 279 282 285 288 289 289 289 289 288 286 285 285 283 282 281 282 282 282 281 280 280 280
243 246 248 248 249 249 250 252 255 257 259 260 260 260 262 264 265 267 269 272 275 278 281 284 286 287 288 288 288 288 287 286 286 285 284 283 283 283 283 283 282 282 282
244 245 247 248 249 248 250 252 255 256 257 257 257 259 261 264 265 266 268 270 274 278 281 284 286 287 287 287 288 288 288 287 288 288 287 285 284 284 284 285 285 285 284
246 246 246 248 249 249 249 250 252 254 256 258 259 261 263 264 264 265 267 270 273 277 280 283 286 287 288 288 289 290 290 289 289 289 289 289 288 288 287 287 286 286 285
248 247 247 247 248 249 250 249 250 253 256 259 261 261 261 262 263 265 267 269 272 275 278 282 285 287 289 289 290 290 290 290 290 290 291 290 290 290 289 289 288 287 286
251 250 249 249 249 249 251 251 252 254 257 260 260 259 259 261 264 266 268 269 271 274 277 281 284 286 288 289 290 290 289 289 290 291 291 291 292 293 292 292 291 289 288
255 254 253 253 251 251 251 252 253 253 255 256 258 260 261 262 264 266 268 270 271 273 276 279 282 285 286 287 288 289 290 290 291 293 294 295 295 296 296 295 293 292 290
258 257 257 256 254 253 252 251 252 253 254 254 256 258 259 261 262 264 266 269 271 273 275 277 280 282 284 286 287 287 289 290 291 293 294 296 297 298 298 297 296 294 292
Height
5869 5870 5870 5871 5872 5873 5873 5874 5874 5875 5875 5875 5876 5876 5876 5876 5875 5875 5875 5875 5875 5875 5875 5874 5874 5874 5874 5873 5873 5873 5872 5871 5871 5870 5869 5868 5868 5867 5866 5865 5865 5864 5864
5868 5868 5869 5869 5869 5870 5870 5870 5871 5871 5872 5872 5872 5872 5873 5873 5873 5873 5872 5872 5872 5872 5872 5872 5872 5872 5871 5871 5871 5870 5869 5868 5867 5866 5866 5865 5865 5864 5863 5862 5862 5861 5860
5865 5866 5866 5867 5867 5867 5867 5867 5868 5868 5869 5869 5869 5869 5869 5869 5869 5869 5869 5869 5869 5869 5869 5869 5869 5868 5868 5868 5867 5867 5866 5865 5865 5864 5863 5863 5862 5861 5860 5859 5858 5858 5857
5862 5863 5864 5864 5864 5864 5864 5864 5865 5865 5865 5865 5866 5866 5866 5866 5866 5866 5866 5866 5865 5865 5865 5865 5865 5865 5864 5864 5864 5863 5863 5863 5862 5861 5860 5859 5858 5857 5857 5856 5855 5854 5853
5859 5860 5861 5861 5861 5861 5861 5861 5862 5862 5862 5862 5862 5862 5862 5862 5862 5862 5862 5862 5862 5861 5861 5861 5861 5861 5861 5860 5860 5860 5860 5859 5859 5858 5857 5856 5855 5853 5852 5852 5851 5850 5849
5855 5856 5857 5857 5858 5858 5858 5859 5859 5859 5859 5859 5859 5859 5859 5859 5859 5859 5859 5858 5858 5858 5857 5857 5857 5857 5857 5857 5857 5856 5856 5856 5855 5854 5853 5852 5851 5849 5848 5847 5846 5845 5844
5851 5852 5853 5853 5854 5855 5855 5855 5856 5856 5856 5856 5856 5856 5855 5855 5855 5855 5855 5855 5855 5854 5854 5853 5853 5853 5853 5853 5853 5852 5852 5852 5851 5850 5849 5848 5847 5845 5843 5842 5841 5840 5839
5846 5848 5848 5849 5850 5851 5851 5852 5852 5852 5852 5852 5852 5852 5851 5851 5851 5851 5851 5851 5851 5850 5850 5850 5849 5849 5849 5849 5849 5849 5848 5847 5846 5845 5844 5843 5842 5840 5838 5837 5836 5835 5834
5842 5843 5844 5845 5846 5847 5847 5848 5848 5848 5849 5849 5848 5848 5848 5847 5847 5847 5847 5847 5846 5846 5846 5846 5846 5845 5845 5845 5845 5845 5844 5843 5842 5841 5840 5839 5837 5835 5833 5832 5831 5829 5829
5837 5838 5839 5841 5842 5843 5843 5843 5844 5844 5844 5845 5845 5844 5844 5844 5843 5843 5843 5843 5842 5842 5842 5842 5842 5841 5841 5841 5841 5841 5839 5839 5838 5837 5835 5834 5832 5830 5829 5827 5826 5825 5824
5832 5833 5834 5836 5837 5838 5838 5839 5839 5839 5840 5840 5840 5840 5840 5840 5840 5840 5839 5839 5839 5839 5838 5838 5837 5837 5837 5836 5836 5836 5834 5833 5832 5831 5830 5829 5827 5826 5824 5823 5822 5820 5820
5827 5827 5829 5831 5832 5833 5834 5834 5834 5835 5835 5836 5836 5836 5836 5836 5836 5836 5836 5835 5835 5835 5834 5834 5833 5832 5832 5831 5831 5830 5828 5827 5826 5825 5824 5823 5822 5820 5819 5818 5816 5815 5814
5821 5822 5824 5825 5827 5828 5828 5829 5829 5830 5831 5831 5831 5832 5832 5831 5832 5832 5831 5831 5831 5830 5830 5829 5828 5827 5826 5825 5825 5824 5822 5820 5819 5818 5817 5816 5815 5814 5813 5812 5810 5809 5808
5816 5817 5818 5819 5821 5822 5822 5823 5824 5824 5825 5826 5826 5827 5827 5827 5827 5826 5826 5826 5825 5825 5824 5823 5823 5822 5821 5820 5819 5817 5815 5813 5812 5810 5810 5809 5808 5807 5806 5805 5803 5802 5801
5810 5812 5813 5813 5815 5815 5816 5817 5818 5818 5819 5820 5821 5821 5822 5822 5821 5821 5820 5820 5820 5819 5818 5817 5816 5815 5814 5813 5812 5811 5809 5807 5805 5803 5802 5801 5800 5799 5798 5797 5796 5795 5794
5802 5804 5806 5808 5809 5809 5810 5810 5811 5812 5812 5813 5814 5815 5816 5816 5816 5815 5815 5815 5814 5813 5812 5811 5810 5809 5808 5807 5805 5804 5802 5800 5798 5796 5795 5794 5793 5792 5791 5790 5789 5788 5787
5796 5797 5798 5801 5802 5803 5804 5804 5805 5805 5805 5807 5807 5808 5809 5809 5809 5809 5809 5809 5808 5807 5806 5805 5803 5802 5801 5800 5798 5797 5795 5793 5791 5789 5788 5787 5786 5785 5783 5782 5781 5780 5779
5789 5790 5791 5793 5795 5797 5798 5798 5798 5798 5799 5800 5800 5801 5802 5802 5802 5803 5803 5803 5802 5801 5800 5798 5797 5796 5794 5792 5791 5789 5787 5785 5784 5782 5780 5779 5778 5777 5775 5774 5773 5772 5771
5781 5782 5783 5785 5787 5789 5790 5790 5791 5792 5793 5794 5794 5795 5796 5795 5795 5795 5796 5796 5795 5794 5793 5792 5790 5789 5787 5785 5783 5781 5779 5777 5776 5774 5772 5771 5769 5768 5767 5765 5764 5763 5762
5773 5774 5775 5777 5779 5780 5781 5781 5783 5784 5786 5787 5787 5788 5788 5788 5788 5788 5788 5788 5788 5787 5786 5784 5783 5781 5779 5777 5775 5773 5771 5769 5768 5766 5765 5763 5761 5759 5758 5756 5754 5753 5751
5764 5765 5767 5768 5770 5772 5773 5773 5774 5775 5777 5778 5779 5780 5781 5781 5781 5781 5781 5780 5780 5779 5778 5777 5775 5773 5771 5769 5767 5765 5763 5761 5760 5758 5756 5754 5752 5750 5748 5746 5744 5742 5740
5754 5756 5757 5759 5761 5763 5764 5765 5766 5766 5766 5769 5771 5773 5774 5773 5773 5773 5773 5773 5772 5771 5770 5769 5767 5766 5764 5762 5760 5757 5755 5754 5751 5749 5747 5744 5742 5740 5738 5735 5733 5731 5728
5744 5746 5748 5749 5751 5752 5754 5756 5756 5757 5758 5761 5763 5765 5765 5764 5763 5764 5765 5765 5764 5763 5762 5761 5760 5758 5756 5754 5752 5750 5747 5745 5743 5741 5738 5735 5732 5730 5727 5724 5722 5719 5717
5733 5735 5737 5738 5740 5742 5743 5745 5747 5748 5750 5752 5754 5754 5755 5755 5755 5756 5756 5756 5756 5755 5754 5753 5752 5750 5748 5746 5744 5741 5739 5737 5734 5732 5729 5726 5722 5719 5716 5712 5709 5706 5704
5721 5723 5724 5726 5728 5730 5732 5734 5736 5739 5741 5742 5743 5743 5745 5745 5746 5746 5747 5747 5747 5746 5746 5745 5743 5742 5740 5738 5735 5733 5730 5727 5725 5722 5719 5716 5712 5708 5704 5700 5696 5693 5690
5708 5709 5710 5712 5714 5716 5718 5721 5724 5727 5729 5731 5732 5733 5734 5735 5735 5737 5737 5738 5738 5737 5737 5736 5735 5733 5731 5729 5727 5724 5721 5719 5716 5713 5709 5706 5702 5697 5692 5686 5682 5679 5675